[[{"header":{"parameterUnit":"m.s-1","parameterCategory":1,"la1":30.2991,"la2":30.254,"lo1":-89.0895,"lo2":-89.0444,"dy":0.0017,"dx":0.0017,"nx":28,"ny":28,"refTime":"2025-01-13T03:00:00:Z","depth":0,"parameterNumber":2,"parameterNumberName":"U-component_of_WINDS"},"data":[0,0,0,0,0,0,0,0,0,0,0,0,0,0,0,0,0,0,0,0,0,0,0,0,0,0,0,0,0,0,0,0,0,0,0,0,0,0,0,0,0,0,0,0,0,0,0,0,0,0,0,0,0,0,0,0,0,0,-1.5555,-1.5556,0,-1.5654,-1.5655,-1.5656,-1.5611,-1.5609,-1.5606,-1.5604,-1.5706,-1.5711,-1.5715,0,0,0,0,0,0,0,0,0,0,0,0,0,-1.5329,-1.5333,-1.5555,-1.5556,-1.5558,-1.5653,-1.5655,-1.5656,-1.5612,-1.5609,-1.5606,-1.5603,-1.5704,-1.571,-1.5716,0,0,0,0,0,0,0,0,0,0,0,0,0,-1.5427,-1.5335,-1.5555,-1.5547,-1.5547,-1.5653,-1.5655,-1.5656,-1.5612,-1.5609,-1.5605,-1.5601,-1.5702,-1.5709,-1.5717,-1.5837,0,0,-1.574,-1.5743,0,0,0,0,0,0,0,0,-1.5422,-1.5436,-1.5547,-1.5548,-1.5548,-1.5616,-1.5612,-1.5717,-1.5613,-1.5588,-1.5604,-1.56,-1.5679,-1.5688,-1.5715,-1.5841,-1.5846,-1.574,-1.5745,-1.5748,-1.575,0,0,0,0,0,0,0,-1.5415,-1.5431,-1.5594,-1.5549,-1.5549,-1.5538,-1.5548,-1.5632,-1.5653,-1.559,-1.5587,-1.5599,-1.5679,-1.5708,-1.5717,-1.5847,-1.574,-1.5747,-1.5751,-1.5754,-1.6077,-1.6081,0,0,0,0,0,0,-1.5408,-1.5426,-1.5591,-1.5597,-1.5475,-1.5545,-1.5557,-1.5598,-1.5652,-1.5656,-1.5602,-1.5596,-1.5697,-1.5708,-1.572,-1.5865,-1.5748,-1.5755,-1.5759,-1.6073,-1.6078,-1.6082,0,0,0,0,0,0,-1.5403,-1.5423,-1.5587,-1.5511,-1.5531,-1.5553,-1.56,-1.5602,-1.5631,-1.5661,-1.5664,-1.5628,-1.5694,-1.571,-1.5808,-1.5868,-1.5758,-1.5765,-1.6068,-1.6074,-1.608,-1.6156,0,0,0,0,0,0,-1.5397,-1.5422,-1.5468,-1.5512,-1.5535,-1.5674,-1.5604,-1.5607,-1.5644,-1.5638,-1.5686,-1.5691,-1.5692,-1.5797,-1.5815,-1.5876,-1.5771,-1.6063,-1.6071,-1.6078,-1.6148,-1.6163,-1.6177,0,0,0,0,0,-1.5389,-1.5485,-1.5471,-1.5491,-1.5593,-1.5677,-1.569,-1.569,-1.5649,-1.5696,-1.5714,-1.5689,-1.5857,-1.5807,-1.5828,-1.5892,-1.6059,-1.6069,-1.6078,-1.6141,-1.616,-1.6176,0,0,0,0,0,0,-1.5449,-1.5491,-1.5475,-1.5588,-1.563,-1.567,-1.5729,-1.571,-1.5764,-1.5757,-1.5754,-1.5765,-1.5867,-1.5889,-1.5832,-1.601,-1.5952,-1.5966,-1.5994,-1.6012,-1.6026,-1.602,-1.5777,0,0,0,0,0,-1.5475,-1.554,-1.5573,-1.567,-1.5691,-1.5706,-1.5743,-1.5739,-1.5782,-1.5799,-1.5825,-1.5868,-1.593,-1.5971,-1.603,-1.6149,-1.616,-1.6203,-1.6217,-1.6229,-1.6242,-1.6307,-1.6327,-1.6112,-1.6112,-1.6112,0,0,-1.553,-1.5561,-1.5603,-1.5683,-1.5714,-1.5782,-1.5721,-1.5795,-1.5846,-1.581,-1.5906,-1.5926,-1.5973,-1.6082,-1.6131,-1.6103,-1.6303,-1.6241,-1.625,-1.6257,-1.6319,-1.6339,-1.6357,-1.6119,-1.6118,-1.6117,0,0,-1.5666,-1.5695,-1.578,-1.5812,-1.586,-1.5869,-1.5889,-1.5931,-1.5944,-1.6038,-1.6013,-1.6072,-1.618,-1.6215,-1.6246,-1.6393,-1.6372,-1.6412,-1.6489,-1.6552,-1.6569,-1.6585,-1.6639,-1.6658,-1.6424,-1.6424,-1.6424,0,-1.5729,-1.583,-1.5825,-1.5902,-1.5938,-1.5907,-1.5993,-1.6024,-1.6089,-1.6115,-1.6082,-1.6216,-1.6245,-1.6362,-1.6398,-1.6424,-1.6448,-1.6408,-1.6567,-1.6582,-1.6596,-1.6648,-1.6668,-1.6429,-1.6428,-1.6428,-1.6427,0,-1.5906,-1.5976,-1.6038,-1.6102,-1.6144,-1.6225,-1.6232,-1.6276,-1.6267,-1.628,-1.6376,-1.641,-1.6476,-1.6502,-1.6495,-1.6619,-1.66,-1.6567,-1.6509,-1.6622,-1.667,-1.669,-1.6435,-1.6434,-1.6432,-1.6431,0,0,-1.6086,-1.6144,-1.6167,-1.6196,-1.6245,-1.6299,-1.6377,-1.6441,-1.648,-1.6524,-1.6591,-1.6681,-1.6651,-1.6687,-1.6682,-1.6737,-1.6853,-1.6698,-1.6699,-1.6728,-1.6993,-1.702,-1.7043,-1.6838,-1.6841,-1.6844,-1.699,0,-1.6228,-1.6366,-1.6363,-1.6492,-1.6557,-1.6527,-1.6595,-1.6633,-1.6646,-1.6703,-1.6716,-1.6782,-1.6735,-1.6757,-1.681,-1.6828,-1.6907,-1.6817,-1.6901,-1.6904,-1.6894,-1.7068,-1.7098,-1.7234,-1.7009,-1.7012,-1.7014,0,-1.6413,-1.6463,-1.6599,-1.6638,-1.6665,-1.6727,-1.6785,-1.6839,-1.688,-1.6886,-1.6925,-1.6911,-1.6991,-1.6927,-1.7037,-1.6976,-1.7009,-1.7023,-1.7028,-1.7039,-1.6969,-1.7087,-1.7277,-1.7299,-1.7044,-1.7042,-1.7039,0,-1.6534,-1.6635,-1.673,-1.6754,-1.6802,-1.6846,-1.6868,-1.6906,-1.6944,-1.6994,-1.7019,-1.7077,-1.711,-1.7155,-1.7157,-1.711,-1.7269,-1.7205,-1.7277,-1.7277,-1.7315,-1.7313,-1.7516,-1.7331,-1.733,-1.733,-1.733,0,-1.6695,-1.6779,-1.6785,-1.6843,-1.6937,-1.6931,-1.7024,-1.7041,-1.7075,-1.7136,-1.7112,-1.717,-1.7168,-1.7226,-1.7228,-1.732,-1.7334,-1.7341,-1.7341,-1.7346,-1.7345,-1.737,-1.7362,-1.7335,-1.7334,-1.7333,-1.7332,0,-1.6848,-1.6855,-1.6956,-1.6992,-1.7002,-1.707,-1.7101,-1.7156,-1.7165,-1.7243,-1.7261,-1.7276,-1.7344,-1.7349,-1.7427,-1.7428,-1.754,-1.7528,-1.7527,-1.7526,-1.7598,-1.7592,-1.7828,-1.7859,-1.765,-1.7652,-1.7654,0,-1.6952,-1.7016,-1.7059,-1.7098,-1.7122,-1.7185,-1.7224,-1.722,-1.7261,-1.7312,-1.7362,-1.7426,-1.7479,-1.7588,-1.7606,-1.7665,-1.7657,-1.7735,-1.7666,-1.7668,-1.7661,-1.7659,-1.7666,-1.775,-1.7752,-1.7754,-1.7755,0,-1.7137,-1.7136,-1.7193,-1.7251,-1.7297,-1.7343,-1.7385,-1.7418,-1.7419,-1.7466,-1.7535,-1.7575,-1.7654,-1.772,-1.7777,-1.7799,-1.7779,-1.7776,-1.7796,-1.7803,-1.7801,-1.7806,-1.7567,-1.7772,-1.777,-1.7769,-1.7768,-1.7767,-1.7271,-1.7327,-1.7365,-1.7429,-1.746,-1.7499,-1.7553,-1.7569,-1.7626,-1.769,-1.7683,-1.776,-1.7798,-1.7874,-1.79,-1.7959,-1.7933,-1.7962,-1.797,-1.7978,-1.7987,-1.7788,-1.7969,-1.7969,-1.7968,-1.7968,-1.7968,0,-1.7457,-1.7479,-1.7538,-1.7597,-1.7647,-1.762,-1.7665,-1.7709,-1.7777,-1.7814,-1.7865,-1.7944,-1.8007,-1.8028,-1.8089,-1.8133,-1.8124,-1.8149,-1.8148,-1.8153,-1.8005,-1.7983,-1.8155,-1.8155,-1.8155,-1.8154,-1.8154,-1.8154,-1.756,-1.7654,-1.7657,-1.7766,-1.7787,-1.7862,-1.7891,-1.7927,-1.7957,-1.8046,-1.8097,-1.811,-1.8142,-1.8204,-1.826,-1.8265,-1.8289,-1.8319,-1.832,-1.8182,-1.8164,-1.8146,-1.8125,-1.8323,-1.8324,-1.8463,-1.8464,-1.8465]},{"header":{"parameterUnit":"m.s-1","parameterCategory":1,"la1":30.2991,"la2":30.254,"lo1":-89.0895,"lo2":-89.0444,"dy":0.0017,"dx":0.0017,"nx":28,"ny":28,"refTime":"2025-01-13T03:00:00:Z","depth":0,"parameterNumber":3,"parameterNumberName":"V-component_of_WINDS"},"data":[0,0,0,0,0,0,0,0,0,0,0,0,0,0,0,0,0,0,0,0,0,0,0,0,0,0,0,0,0,0,0,0,0,0,0,0,0,0,0,0,0,0,0,0,0,0,0,0,0,0,0,0,0,0,0,0,0,0,-5.8232,-5.8234,0,-5.8383,-5.8384,-5.8386,-5.8326,-5.8323,-5.8319,-5.8316,-5.8465,-5.8472,-5.848,0,0,0,0,0,0,0,0,0,0,0,0,0,-5.7886,-5.7893,-5.8232,-5.8234,-5.8236,-5.8382,-5.8385,-5.8387,-5.8327,-5.8322,-5.8318,-5.8314,-5.8463,-5.8472,-5.848,0,0,0,0,0,0,0,0,0,0,0,0,0,-5.8037,-5.7895,-5.8231,-5.8224,-5.8224,-5.8382,-5.8385,-5.8387,-5.8328,-5.8322,-5.8317,-5.8312,-5.846,-5.8471,-5.8481,-5.8654,0,0,-5.8515,-5.8519,0,0,0,0,0,0,0,0,-5.8028,-5.8049,-5.8223,-5.8224,-5.8226,-5.833,-5.8318,-5.8477,-5.8329,-5.8288,-5.8316,-5.8309,-5.8424,-5.8438,-5.8478,-5.8661,-5.8668,-5.8516,-5.8522,-5.8527,-5.853,0,0,0,0,0,0,0,-5.8018,-5.8043,-5.8291,-5.8225,-5.8227,-5.8211,-5.8226,-5.8347,-5.8384,-5.8291,-5.8287,-5.8306,-5.8424,-5.8467,-5.8481,-5.867,-5.8515,-5.8525,-5.8532,-5.8536,-5.9002,-5.9007,0,0,0,0,0,0,-5.8008,-5.8034,-5.8287,-5.8296,-5.8112,-5.8221,-5.8238,-5.8302,-5.8382,-5.839,-5.8311,-5.8303,-5.8451,-5.8468,-5.8486,-5.8693,-5.8527,-5.8537,-5.8543,-5.8996,-5.9003,-5.9009,0,0,0,0,0,0,-5.8001,-5.8031,-5.828,-5.8164,-5.8195,-5.8233,-5.8304,-5.8308,-5.8351,-5.8397,-5.8403,-5.8349,-5.8448,-5.847,-5.8613,-5.8698,-5.8542,-5.8552,-5.8989,-5.8998,-5.9006,-5.911,0,0,0,0,0,0,-5.7991,-5.8029,-5.8096,-5.8166,-5.8201,-5.8408,-5.831,-5.8314,-5.837,-5.8362,-5.8434,-5.8441,-5.8445,-5.8597,-5.8624,-5.871,-5.856,-5.8982,-5.8993,-5.9003,-5.9099,-5.9121,-5.914,0,0,0,0,0,-5.7979,-5.8119,-5.81,-5.8131,-5.8287,-5.8413,-5.8432,-5.8436,-5.8378,-5.8445,-5.8474,-5.8439,-5.8684,-5.8612,-5.8642,-5.8732,-5.8976,-5.899,-5.9003,-5.909,-5.9117,-5.914,0,0,0,0,0,0,-5.8057,-5.8128,-5.8108,-5.8275,-5.8338,-5.8402,-5.8488,-5.8464,-5.8544,-5.8533,-5.8532,-5.8549,-5.8696,-5.8728,-5.8647,-5.8903,-5.8821,-5.8841,-5.8877,-5.8903,-5.8923,-5.8913,-5.857,0,0,0,0,0,-5.8093,-5.8191,-5.8247,-5.8389,-5.8422,-5.845,-5.8504,-5.8502,-5.8566,-5.8593,-5.8632,-5.8695,-5.8786,-5.8846,-5.8932,-5.9103,-5.9117,-5.918,-5.92,-5.9217,-5.9234,-5.9325,-5.9354,-5.9052,-5.9052,-5.9052,0,0,-5.817,-5.8221,-5.8283,-5.8406,-5.8455,-5.8555,-5.8472,-5.8582,-5.8655,-5.8608,-5.8746,-5.8778,-5.8847,-5.9005,-5.9076,-5.9036,-5.932,-5.9233,-5.9246,-5.9255,-5.9342,-5.937,-5.9396,-5.9061,-5.906,-5.9058,0,0,-5.8361,-5.841,-5.8533,-5.8584,-5.8659,-5.8676,-5.8706,-5.8773,-5.8793,-5.8931,-5.8898,-5.8984,-5.9141,-5.9192,-5.9239,-5.9448,-5.9417,-5.9475,-5.9582,-5.9672,-5.9695,-5.9716,-5.9791,-5.9817,-5.9492,-5.9492,-5.9492,0,-5.8447,-5.8598,-5.8599,-5.8712,-5.8766,-5.8729,-5.8853,-5.8902,-5.9001,-5.9039,-5.8992,-5.9188,-5.9233,-5.9401,-5.9452,-5.9491,-5.9524,-5.9468,-5.9692,-5.9713,-5.9733,-5.9804,-5.9832,-5.9499,-5.9498,-5.9497,-5.9497,0,-5.8699,-5.8804,-5.8894,-5.8992,-5.9057,-5.9174,-5.9192,-5.9257,-5.9247,-5.9269,-5.9409,-5.9461,-5.9557,-5.9596,-5.9588,-5.9763,-5.9736,-5.9691,-5.9609,-5.9768,-5.9835,-5.9862,-5.9508,-5.9506,-5.9504,-5.9502,0,0,-5.8945,-5.9042,-5.9075,-5.9119,-5.9198,-5.9279,-5.9393,-5.9488,-5.9544,-5.9612,-5.9708,-5.9841,-5.98,-5.9853,-5.9849,-5.9928,-6.0089,-5.9873,-5.9874,-5.9912,-6.0285,-6.0319,-6.035,-6.0069,-6.0074,-6.0078,-6.0279,0,-5.9142,-5.9346,-5.935,-5.9536,-5.9632,-5.9598,-5.9697,-5.9756,-5.9778,-5.9862,-5.9885,-5.998,-5.9918,-5.995,-6.0026,-6.0054,-6.0164,-6.0039,-6.0157,-6.0161,-6.0142,-6.0385,-6.0421,-6.0608,-6.0305,-6.0309,-6.0312,0,-5.9401,-5.9479,-5.9676,-5.9741,-5.9781,-5.9871,-5.9958,-6.0038,-6.0103,-6.0113,-6.0172,-6.0157,-6.0272,-6.0185,-6.0342,-6.0257,-6.0305,-6.0325,-6.0332,-6.0344,-6.0247,-6.0404,-6.0668,-6.0696,-6.0353,-6.035,-6.0347,0,-5.9561,-5.9715,-5.9853,-5.9891,-5.997,-6.0034,-6.007,-6.0129,-6.0186,-6.0261,-6.0297,-6.0384,-6.0432,-6.0498,-6.0506,-6.0442,-6.0664,-6.0578,-6.0675,-6.0675,-6.0724,-6.0721,-6.1001,-6.0754,-6.0753,-6.0753,-6.0752,0,-5.9782,-5.9903,-5.9926,-6.001,-6.0145,-6.0147,-6.0279,-6.0309,-6.0362,-6.045,-6.0424,-6.0507,-6.0512,-6.0596,-6.0602,-6.0731,-6.0753,-6.0763,-6.0764,-6.0766,-6.0765,-6.0798,-6.0786,-6.076,-6.0759,-6.0757,-6.0756,0,-5.9984,-6.0004,-6.0152,-6.0214,-6.0233,-6.0329,-6.0382,-6.0461,-6.048,-6.0592,-6.0618,-6.0648,-6.0746,-6.076,-6.0874,-6.0878,-6.1033,-6.1019,-6.1012,-6.101,-6.1107,-6.1098,-6.1418,-6.146,-6.1186,-6.1188,-6.119,0,-6.0124,-6.0217,-6.029,-6.0348,-6.0387,-6.0481,-6.0539,-6.0543,-6.0604,-6.0684,-6.0754,-6.0849,-6.0926,-6.1084,-6.1114,-6.1201,-6.1189,-6.1295,-6.1202,-6.1202,-6.1191,-6.1186,-6.1195,-6.1314,-6.1317,-6.1319,-6.1321,0,-6.0371,-6.0376,-6.0461,-6.0551,-6.0621,-6.069,-6.0756,-6.0804,-6.0817,-6.0886,-6.0987,-6.1047,-6.1163,-6.1258,-6.1344,-6.1377,-6.1352,-6.135,-6.1377,-6.1382,-6.1374,-6.1379,-6.1062,-6.1343,-6.1341,-6.1339,-6.1338,-6.1337,-6.0547,-6.0627,-6.0691,-6.0787,-6.0837,-6.0899,-6.0977,-6.1006,-6.109,-6.1187,-6.1184,-6.1294,-6.1354,-6.1467,-6.1507,-6.1591,-6.1556,-6.1596,-6.1606,-6.1616,-6.1625,-6.136,-6.1607,-6.1606,-6.1606,-6.1605,-6.1605,0,-6.0792,-6.0831,-6.0919,-6.1013,-6.1088,-6.1057,-6.1128,-6.1192,-6.129,-6.1349,-6.1426,-6.154,-6.1632,-6.1669,-6.1758,-6.1819,-6.1809,-6.1842,-6.1838,-6.1846,-6.1651,-6.1619,-6.1848,-6.1848,-6.1848,-6.1848,-6.1848,-6.1848,-6.0929,-6.1064,-6.1076,-6.1235,-6.1272,-6.1382,-6.1425,-6.1481,-6.1528,-6.1658,-6.1735,-6.1759,-6.1809,-6.1901,-6.1982,-6.1991,-6.2024,-6.2063,-6.2066,-6.1884,-6.186,-6.1836,-6.1806,-6.207,-6.2071,-6.2253,-6.2255,-6.2256]}]]